sat.trackr.live / text

‹ back to catalog

EXPRESS AMU-7

NORAD 50001 · 2021-123A

PAYLOAD ACTIVE UNKNOWN

§ Identity

Operator
Country
CIS
Launch date
2021-12-13
Launch site
TYMSC
Launch vehicle
Mass (kg)
RCS (m²)

Purposes: comms

External: N2YO · Heavens-Above · Gunter

§ Orbital elements

Epoch: 2026-09-13T03:46:38.765568Z

Period
1,436.09 min
Inclination
0.0341°
Eccentricity
0.0000064
Mean motion
1.00272069 rev/d
Perigee alt
35,786.2 km
Apogee alt
35,786.8 km
Semi-major
42,164.7 km
B*
0.0000e+0
RAAN
261.0435°
Arg perigee
120.4543°
Mean anomaly
172.3288°
Rev number
1,742

§ Raw data

EXPRESS AMU-71 50001U 21123A   26256.15739312 -.00000254  00000+0  00000+0 0  99972 50001   0.0341 261.0435 0000064 120.4543 172.3288  1.00272069 17428

JSON: /api/v1/satellites/50001 · /tle

For live sub-satellite position, see the globe view (requires WebGL).

§ Visibility from observer

Set your observer location to see the next 7 days of passes ≥ 10°. The values pass through the URL so the page stays shareable.

No JS? Fill the form by hand. The geolocation button needs JavaScript.